Printer-friendly version

IAU Minor Planet Center

Minor Planet Center

MPEC 2009-F10 : 2009 FE

The following Minor Planet Electronic Circular may be linked-to from your own Web pages, but must not otherwise be redistributed electronically.


Read MPEC 2009-F09 Read MPEC 2009-F11


M.P.E.C. 2009-F10                                Issued 2009 Mar. 17, 15:03 UT

     The Minor Planet Electronic Circulars contain information on unusual
         minor planets and routine data on comets.  They are published
   on behalf of Commission 20 of the International Astronomical Union by the
          Minor Planet Center, Smithsonian Astrophysical Observatory,
                          Cambridge, MA 02138, U.S.A.

             Prepared using the Tamkin Foundation Computer Network

                              MPC@CFA.HARVARD.EDU
          URL http://www.cfa.harvard.edu/iau/mpc.html  ISSN 1523-6714

                                    2009 FE

Observations:
     K09F00E* C2009 03 16.27919 13 31 33.14 -03 16 45.0          19.9 V EF010691
     K09F00E  C2009 03 16.29728 13 31 36.45 -03 17 02.5          19.8 V EF010691
     K09F00E  C2009 03 16.31565 13 31 39.80 -03 17 20.0          19.8 V EF010691
     K09F00E  C2009 03 16.38375 13 31 52.10 -03 18 24.5          20.0 V EF010291
     K09F00E  C2009 03 16.38460 13 31 52.20 -03 18 26.2          19.6 R EF010854
     K09F00E  C2009 03 16.38939 13 31 53.13 -03 18 28.8          19.6 R EF010854
     K09F00E  C2009 03 16.38975 13 31 53.17 -03 18 30.1          19.9 V EF010291
     K09F00E  C2009 03 16.39066 13 31 52.88 -03 18 34.0          19.4 R EF010H36
     K09F00E  C2009 03 16.39342 13 31 53.84 -03 18 33.7          19.9 V EF010291
     K09F00E  C2009 03 16.39419 13 31 54.02 -03 18 34.9          19.7 R EF010854
     K09F00E  C2009 03 16.39550 13 31 53.76 -03 18 38.9          19.8 R EF010H36
     K09F00E  C2009 03 16.40036 13 31 54.63 -03 18 43.5          19.3 R EF010H36
     K09F00E  C2009 03 16.40521 13 31 55.54 -03 18 48.6          19.0 R EF010H36
     K09F00E 5C2009 03 16.43056 13 32 00.76 -03 19 09.9          20.0 R EF010673
     K09F00E 5C2009 03 16.43588 13 32 01.74 -03 19 15.0                 EF010673
     K09F00E 5C2009 03 16.44074 13 32 02.63 -03 19 19.3                 EF010673
     K09F00E 5C2009 03 16.44676 13 32 03.72 -03 19 25.2                 EF010673
     K09F00E  C2009 03 17.04607 13 34 02.12 -03 29 12.0                 EF010J95
     K09F00E  C2009 03 17.05347 13 34 03.44 -03 29 19.4                 EF010J95
     K09F00E  C2009 03 17.06105 13 34 04.92 -03 29 27.3          19.7 R EF010J95
     K09F00E  C2009 03 17.32972 13 34 58.71 -03 33 47.9          19.7 R EF010H36
     K09F00E  C2009 03 17.33952 13 35 00.56 -03 33 57.9          19.2 R EF010H36
     K09F00E  C2009 03 17.35747 13 35 03.96 -03 34 15.9          19.6 R EF010H36
     K09F00E  C2009 03 17.37957613 35 08.02 -03 34 38.0          19.5 V EF010H55
     K09F00E  C2009 03 17.38371113 35 08.77 -03 34 42.6          19.3 V EF010H55
     K09F00E  C2009 03 17.38642113 35 09.37 -03 34 43.9          19.2 V EF010H55
     K09F00E  C2009 03 17.39336 13 35 11.38 -03 34 48.4          19.7 V EF010291
     K09F00E 5C2009 03 17.39769 13 35 12.46 -03 34 53.9          19.7 R EF010673
     K09F00E 5C2009 03 17.40752 13 35 14.21 -03 35 02.7                 EF010673
     K09F00E HC2009 03 17.40770 13 35 14.20 -03 35 03.6                 EF010291

Observer details:
291 LPL/Spacewatch II.  Observer T. H. Bressi.  1.8-m f/2.7 reflector + CCD.
673 Table Mountain Observatory, Wrightwood.  Observer J. Young.  0.61-m f/16
    Cassegrain + CCD.
691 Steward Observatory, Kitt Peak.  Observer T. H. Bressi.  0.9-m f/3
    reflector + CCD.
854 Sabino Canyon Observatory, Tucson.  Observer J. E. McGaha.  0.36-m f/10.0
    Schmidt-Cassegrain + CCD.
H36 Sandlot Observatory, Scranton.  Observer G. Hug.  0.56-m reflector + CCD.
H55 Astronomical Research Observatory, Charleston.  Observer R. Holmes.
    Measurer S. Foglia.
J95 Great Shefford.  Observer P. Birtwhistle.  0.40-m f/6.0 Schmidt-Cassegrain
    + CCD.

Orbital elements:
2009 FE                                             PHA, Earth MOID = 0.0027 AU
Epoch 2009 June 18.0 TT = JDT 2455000.5                 MPC
M   8.86827              (2000.0)            P               Q
n   0.23394995     Peri.  202.28673     -0.46892002     +0.88296326
a   2.6084794      Node    39.75848     -0.80504717     -0.41696345
e   0.6204942      Incl.    1.98330     -0.36333602     -0.21567885
P   4.21           H   21.3           G   0.15           U   8
Residuals in seconds of arc
090316 691  0.2-  0.2+    090316 H36  0.1+  0.2-    090317 H36  0.7-  0.2+
090316 691  0.0   0.1-    090316 H36  0.1-  0.2-    090317 H36  1.0-  0.0
090316 691  0.2+  0.2-    090316 H36  0.3+  0.7-    090317 H36  1.3-  0.1-
090316 291  0.0   0.0     090316 673  0.3-  0.2+    090317 H55  0.3-  0.2+
090316 854  0.4-  0.7-    090316 673  0.1-  0.1+    090317 H55  0.9-  0.3-
090316 854  0.5+  1.2+    090316 673  0.0   0.5+    090317 H55  0.3+  1.1+
090316 291  0.2-  0.1+    090316 673  0.1-  0.3+    090317 291  0.2-  0.1+
090316 H36  0.2+  0.1+    090317 J95  0.8+  0.2+    090317 673  0.5+  0.1+
090316 291  0.1-  0.0     090317 J95  0.6-  0.1+    090317 673  1.3-  1.2+
090316 854  0.9+  0.3-    090317 J95  0.0   0.3-    090317 291  1.2+  0.7-

Ephemeris:
2009 FE                  a,e,i = 2.61, 0.62, 2                   q = 0.9899
Date    TT    R. A. (2000) Decl.     Delta      r     Elong.  Phase     V
2009 03 10    13 14.00   -01 51.6    0.317    1.280   151.2    22.0    20.4
2009 03 20    13 44.60   -04 21.2    0.231    1.206   152.9    22.1    19.6
2009 03 30    14 37.71   -08 45.6    0.159    1.138   148.9    27.0    18.8
2009 04 09    16 23.21   -16 09.3    0.112    1.080   132.2    43.4    18.4
2009 04 19    19 07.23   -20 50.9    0.107    1.034   103.3    71.0    19.0
2009 04 29    21 08.66   -18 13.4    0.142    1.003    84.5    87.4    20.1
2009 05 09    22 11.71   -14 49.8    0.193    0.990    78.8    90.2    20.9
2009 05 19    22 48.14   -12 15.3    0.246    0.996    79.3    86.6    21.3
2009 05 29    23 12.19   -10 20.0    0.297    1.019    82.7    80.5    21.5
2009 06 08    23 28.90   -08 55.3    0.342    1.059    87.9    73.3    21.7
2009 06 18    23 40.00   -07 59.4    0.380    1.112    94.5    65.6    21.7
2009 06 28    23 45.68   -07 34.7    0.411    1.176   102.6    57.5    21.8
2009 07 08    23 45.79   -07 42.2    0.437    1.248   112.1    49.0    21.8
2009 07 18    23 40.26   -08 21.1    0.461    1.325   123.0    40.0    21.8
2009 07 28    23 29.40   -09 26.6    0.489    1.406   135.4    30.5    21.8
2009 08 07    23 14.56   -10 46.6    0.526    1.489   148.7    20.7    21.8
2009 08 17    22 57.91   -12 06.1    0.578    1.573   162.3    11.3    21.8
2009 08 27    22 41.96   -13 11.3    0.649    1.657   174.4     3.4    21.8

Sonia Keys                   (C) Copyright 2009 MPC           M.P.E.C. 2009-F10

Read MPEC 2009-F09 Read MPEC 2009-F11


Our Web policy. Index to the CBAT/MPC/ICQ pages.


Valid HTML 4.01!